W1MWS-13 Weather Reports


time (UTC)temp
F
wind
direction
speed
knots
gust
knots
rain 1hr
in
rain 24hr
in
rain mn
in
humidity
%
barometer
mb
20260505003347 64 158 8.7 10.4 0.00 0.00 0.00 54 1008.3
20260505002818 64 45 5.2 7.0 0.00 0.00 0.00 54 1008.0
20260505002328 65 180 5.2 6.1 0.00 0.00 0.00 54 1008.0
20260505001819 65 79 4.3 5.2 0.00 0.00 0.00 53 1007.7
20260505001327 65 158 6.1 7.0 0.00 0.00 0.00 53 1007.7
20260505000818 66 297 5.2 6.1 0.00 0.00 0.00 52 1007.3
20260505000327 66 23 4.3 5.2 0.00 0.00 0.00 52 1007.3
20260504235818 66 146 3.5 3.5 0.00 0.00 0.00 51 1007.3
20260504235328 67 73 5.2 6.1 0.00 0.00 0.00 50 1007.1
20260504234818 67 69 4.3 7.0 0.00 0.00 0.00 50 1007.1
20260504234326 68 113 4.3 5.2 0.00 0.00 0.00 48 1006.9
20260504233817 68 106 5.2 7.0 0.00 0.00 0.00 47 1006.9
20260504233320 69 113 2.6 3.5 0.00 0.00 0.00 43 1006.9
20260504232837 70 45 4.3 6.1 0.00 0.00 0.00 43 1006.5
20260504232326 70 158 2.6 3.5 0.00 0.00 0.00 42 1006.5
20260504231837 70 138 7.8 8.7 0.00 0.00 0.00 42 1006.4
20260504231319 71 139 5.2 6.1 0.00 0.00 0.00 42 1006.4
20260504230828 0 135 7.8 7.8 0.00 0.00 0.00 1006.3
20260504230317 71 139 3.5 4.3 0.00 0.00 0.00 41 1006.3
20260504225823 71 113 6.1 7.8 0.00 0.00 0.00 40 1006.3
20260504225351 71 113 5.2 6.1 0.00 0.00 0.00 40 1006.1
20260504224822 72 135 3.5 4.3 0.00 0.00 0.00 40 1006.1
20260504224350 72 3.5 4.3 0.00 0.00 0.00 40 1006.0
20260504223821 72 131 4.3 5.2 0.00 0.00 0.00 40 1006.0
20260504223331 72 152 4.3 5.2 0.00 0.00 0.00 40 1006.0
20260504222822 72 141 4.3 6.1 0.00 0.00 0.00 40 1006.1
20260504222411 72 251 3.5 4.3 0.00 0.00 0.00 40 1006.1
20260504221822 73 180 4.3 5.2 0.00 0.00 0.00 40 1005.9
20260504221351 73 135 6.1 8.7 0.00 0.00 0.00 40 1005.9
20260504220823 73 180 2.6 4.3 0.00 0.00 0.00 40 1006.1
20260504220345 73 150 3.5 5.2 0.00 0.00 0.00 40 1006.1
20260504215822 73 158 5.2 6.1 0.00 0.00 0.00 40 1006.1
20260504215320 73 203 4.3 5.2 0.00 0.00 0.00 39 1005.9
20260504214817 73 166 7.0 8.7 0.00 0.00 0.00 39 1005.9
20260504214352 73 144 3.5 5.2 0.00 0.00 0.00 39 1006.0
20260504213817 73 142 5.2 7.0 0.00 0.00 0.00 39 1006.0
20260504213345 73 6.1 6.1 0.00 0.00 0.00 39 1005.9
20260504212816 73 190 5.2 7.0 0.00 0.00 0.00 39 1005.9
20260504212325 74 180 6.1 7.8 0.00 0.00 0.00 38
20260504211856 75 223 7.8 9.6 0.00 0.00 0.00 38 1006.1
20260504211325 75 113 5.2 7.0 0.00 0.00 0.00 37 1006.1
20260504210816 75 151 4.3 5.2 0.00 0.00 0.00 38 1006.0
20260504210319 75 203 5.2 6.1 0.00 0.00 0.00 38 1006.0
20260504205849 74 214 6.1 6.1 0.00 0.00 0.00 38 1006.0
20260504205319 75 203 5.2 6.1 0.00 0.00 0.00 38 1005.9
20260504204828 74 142 5.2 7.0 0.00 0.00 0.00 38 1005.9
20260504204319 74 113 3.5 5.2 0.00 0.00 0.00 38 1006.0
20260504203828 76 203 4.3 4.3 0.00 0.00 0.00 37 1006.0
20260504203339 76 135 2.6 3.5 0.00 0.00 0.00 38 1006.0
20260504202828 75 113 6.1 7.0 0.00 0.00 0.00 38 1006.0
20260504202319 73 270 4.3 5.2 0.00 0.00 0.00 39 1006.0
20260504201822 72 89 4.3 6.1 0.00 0.00 0.00 39 1006.1
20260504201319 72 113 3.5 5.2 0.00 0.00 0.00 39 1006.1
20260504200816 73 165 5.2 7.0 0.00 0.00 0.00 38 1006.2
20260504200319 73 203 4.3 5.2 0.00 0.00 0.00 38 1006.2
20260504195848 72 135 6.1 7.0 0.00 0.00 0.00 38 1006.2
20260504195318 72 152 8.7 11.3 0.00 0.00 0.00 38 1006.1
20260504194827 72 113 4.3 4.3 0.00 0.00 0.00 38 1006.1
20260504194318 72 234 3.5 5.2 0.00 0.00 0.00 37 1006.3
20260504193827 72 270 7.0 8.7 0.00 0.00 0.00 37 1006.3
20260504193318 72 154 9.6 10.4 0.00 0.00 0.00 37 1006.3
20260504192848 73 158 5.2 7.8 0.00 0.00 0.00 37 1006.2
20260504192319 75 135 6.1 6.1 0.00 0.00 0.00 36 1006.2
20260504191848 76 113 7.0 7.8 0.00 0.00 0.00 36 1006.1
20260504191319 76 93 6.1 6.1 0.00 0.00 0.00 35 1006.1
20260504190828 76 158 5.2 6.1 0.00 0.00 0.00 36 1006.5
20260504190319 74 110 6.1 8.7 0.00 0.00 0.00 36 1006.5
20260504185828 74 135 7.0 8.7 0.00 0.00 0.00 36 1006.5
20260504185338 74 171 8.7 10.4 0.00 0.00 0.00 36 1006.4
20260504184827 74 158 3.5 4.3 0.00 0.00 0.00 36 1006.4
20260504184319 74 253 4.3 5.2 0.00 0.00 0.00 36 1006.8
20260504183822 73 199 5.2 6.1 0.00 0.00 0.00 36 1006.8
20260504183318 73 147 7.0 8.7 0.00 0.00 0.00 36 1006.7
20260504182826 74 158 9.6 12.2 0.00 0.00 0.00 36 1006.7
20260504182317 74 68 5.2 7.0 0.00 0.00 0.00 36 1006.7
20260504181826 73 203 3.5 4.3 0.00 0.00 0.00 37 1006.8
20260504181317 73 259 5.2 7.8 0.00 0.00 0.00 36 1006.8
20260504180826 73 190 7.8 8.7 0.00 0.00 0.00 36 1006.5
20260504180324 73 203 6.1 7.8 0.00 0.00 0.00 36 1006.5
20260504175841 73 113 5.2 5.2 0.00 0.00 0.00 36 1006.5
20260504175330 73 0 5.2 7.0 0.00 0.00 0.00 37 1006.9
20260504174836 71 165 5.2 5.2 0.00 0.00 0.00 37 1006.9
20260504174345 71 113 8.7 10.4 0.00 0.00 0.00 36 1007.2
20260504173816 73 135 7.0 8.7 0.00 0.00 0.00 37 1007.2
20260504173325 72 153 6.1 8.7 0.00 0.00 0.00 37 1007.2
20260504172816 72 113 10.4 16.5 0.00 0.00 0.00 37 1007.2
20260504172321 72 114 7.8 9.6 0.00 0.00 0.00 38 1007.2
20260504171828 71 113 7.0 9.6 0.00 0.00 0.00 37 1007.3
20260504171318 70 125 9.6 13.0 0.00 0.00 0.00 38 1007.3
20260504170828 71 225 7.0 7.8 0.00 0.00 0.00 38 1007.4
20260504170344 72 113 8.7 10.4 0.00 0.00 0.00 37 1007.4
20260504160359 70 149 12.2 13.0 0.00 0.00 0.00 40 1007.8
20260504150821 69 180 6.1 8.7 0.00 0.00 0.00 42 1008.6
20260504150330 70 180 4.3 5.2 0.00 0.00 0.00 41 1008.6
20260504140821 65 255 5.2 6.1 0.00 0.01 0.00 47 1009.3
20260504140329 64 158 6.1 7.8 0.00 0.01 0.00 48 1009.3
20260504130322 59 113 4.3 6.1 0.00 0.01 0.00 54 1010.4
20260504120319 56 172 5.2 6.1 0.00 0.02 0.00 56 1010.7
20260504110331 50 104 3.5 4.3 0.00 0.02 0.00 66 1010.5
20260504100333 46 0.0 0.0 0.00 0.02 0.00 71 1010.8
20260504081824 45 68 1.7 1.7 0.00 0.02 0.00 72 1010.7
20260504081315 44 45 1.7 2.6 0.00 0.02 0.00 73 1010.7
20260504080825 44 68 0.9 0.9 0.00 0.02 0.00 73 1010.8
20260504080316 44 0.0 0.0 0.00 0.02 0.00 73 1010.8
20260504070336 43 113 1.7 1.7 0.00 0.02 0.00 73 1010.7
20260504050332 38 125 0.9 1.7 0.00 0.02 0.00 82 1010.7
20260504045823 38 0.0 0.0 0.00 0.02 0.00 82 1010.7
20260504045332 38 101 1.7 1.7 0.00 0.02 0.00 82 1010.7
20260504044822 38 225 0.9 1.7 0.00 0.02 0.00 82 1010.7
20260504044332 38 145 1.7 1.7 0.00 0.02 0.00 82 1010.7
20260504043843 38 90 1.7 3.5 0.00 0.02 0.00 81 1010.7
20260504043327 37 0.9 1.7 0.00 0.02 0.00 83 1010.7
20260504042830 37 0.0 0.0 0.00 0.02 0.00 83 1010.7
20260504042320 37 158 0.9 1.7 0.00 0.02 0.00 83 1010.7
20260504041848 37 0.0 0.0 0.00 0.02 0.00 83 1010.7
20260504041319 37 0.0 0.0 0.00 0.02 0.00 83 1010.7
20260504040829 38 0.0 0.0 0.00 0.02 0.00 82 1010.7
20260504040319 38 0.0 0.0 0.00 0.02 0.00 81 1010.7
20260504035822 38 0.9 2.6 0.00 0.02 0.02 81 1010.7
20260504035319 38 0.0 0.0 0.00 0.02 0.02 81 1010.4
20260504034817 38 0.0 0.0 0.00 0.02 0.02 80 1010.4
20260504034351 38 135 1.7 1.7 0.00 0.02 0.02 80 1010.5
20260504033822 39 0.9 2.6 0.00 0.02 0.02 80 1010.5
20260504033330 39 203 0.9 1.7 0.00 0.02 0.02 79 1010.3
20260504032821 39 0.0 0.0 0.00 0.02 0.02 79 1010.3
20260504032330 39 0.0 0.9 0.00 0.02 0.02 79 1010.3
20260504031836 39 0.0 0.0 0.00 0.02 0.02 79 1010.4
20260504031345 39 0.0 0.0 0.00 0.02 0.02 78 1010.4
20260504030836 39 0.0 0.0 0.00 0.02 0.02 78 1010.3
20260504030325 39 0.0 0.0 0.00 0.02 0.02 77 1010.3
20260504025816 40 0.0 0.0 0.00 0.02 0.02 76 1010.3
20260504025345 40 0.0 0.0 0.00 0.02 0.02 75 1010.3
20260504024816 40 0.0 0.0 0.00 0.02 0.02 74 1010.3
20260504024324 40 0.0 0.0 0.00 0.02 0.02 74 1010.2
20260504023828 40 0.0 0.0 0.00 0.02 0.02 74 1010.2
20260504023358 40 0.0 0.0 0.00 0.02 0.02 74 1010.2
20260504022827 41 0.0 0.0 0.00 0.02 0.02 73 1010.2
20260504022318 41 0.0 0.0 0.00 0.02 0.02 73 1010.2
20260504021821 41 0.0 0.0 0.00 0.02 0.02 73 1010.2
20260504021318 41 203 0.9 1.7 0.00 0.02 0.02 73 1010.2
20260504020815 41 180 1.7 2.6 0.00 0.02 0.02 73 1010.0
20260504020318 41 158 0.0 0.9 0.00 0.02 0.02 73 1010.0
20260504015828 41 0.0 0.0 0.00 0.02 0.02 74 1010.0
20260504015338 41 135 0.9 1.7 0.00 0.02 0.02 75 1010.0
20260504014827 41 0.0 0.0 0.00 0.02 0.02 75 1010.0
20260504014331 41 0.0 0.0 0.00 0.02 0.02 75 1009.8
20260504013821 42 0.0 0.0 0.00 0.02 0.02 74 1009.8
20260504013331 42 0.0 0.0 0.00 0.02 0.02 73 1009.8
20260504012821 42 0.0 0.0 0.00 0.02 0.02 72 1009.7
20260504012324 42 0.0 0.0 0.00 0.02 0.02 72 1009.7
20260504011817 43 0.0 0.0 0.00 0.02 0.02 70 1009.6
20260504011326 43 0.0 0.0 0.00 0.02 0.02 69 1009.6
20260504010824 43 0.0 0.0 0.00 0.02 0.02 69 1009.5
20260504010315 44 0.0 0.0 0.00 0.02 0.02 68 1009.5
20260504005819 0 0.0 0.0 0.00 0.02 0.02 1009.5
20260504005327 45 0.0 0.0 0.00 0.02 0.02 63 1009.3
20260504004818 46 0.0 0.0 0.00 0.02 0.02 61 1009.3
20260504004327 46 0.0 0.0 0.00 0.02 0.02 60 1009.2